Regional Weather Roundup
Issued by NWS

Home | Current Version | Previous Version | Graphics & Text | Print | Product List | Glossary On
Versions: 1 2 3 4 5 6 7 8 9 10 11 12 13 14 15 16 17 18 19 20 21 22 23 24 25 26 27 28 29 30 31 32 33 34 35 36 37 38 39 40 41 42 43 44 45 46 47 48 49 50
000
ASUS44 KMEG 280910
RWRTN
TENNESSEE HOURLY STATE WEATHER ROUNDUP
NATIONAL WEATHER SERVICE MEMPHIS TN
400 AM CDT TUE JUL 28 2015

TNZ002-004-019-021-049-052-054-088>092-281000-
WEST TENNESSEE

CITY           SKY/WX    TMP DP  RH WIND       PRES   REMARKS
MEMPHIS INTL   CLEAR     81  75  82 S7        29.94F
NWS MEMPHIS      N/A     78 N/A N/A MISG        N/A
JACKSON        PTCLDY    76  74  93 S3        29.95S FOG
DYERSBURG        N/A    N/A N/A N/A MISG        N/A
PARIS          CLEAR     72  72 100 CALM      29.96S
LEXINGTON      CLOUDY    75  73  94 CALM      29.95S VSB 1/4
$$

TNZ008-025-027-028-033-062-065-066-281000-
NORTH MIDDLE TENNESSEE

CITY           SKY/WX    TMP DP  RH WIND       PRES   REMARKS
NASHVILLE      MOCLDY    78  76  93 CALM      29.97R
CLARKSVILLE    MOCLDY    75  72  90 NE3       29.96R
SMYRNA         MOCLDY    76  75  96 CALM      29.98R
COOKEVILLE     CLEAR     73  73 100 CALM      29.99S
CROSSVILLE     PTCLDY    72  70  93 CALM      30.05S FOG
$$

TNZ061-075-076-078-094-096-097-281000-
SOUTH MIDDLE TENNESSEE

CITY           SKY/WX    TMP DP  RH WIND       PRES   REMARKS
FAYETTEVILLE   CLEAR     73  72  94 CALM      29.99S
TULLAHOMA      CLEAR     73  72  94 CALM      30.01S
WINCHESTER     CLEAR     72  70  94 CALM      30.00S
MCMINNVILLE    CLEAR     75  75 100 CALM      30.00S
COLUMBIA       CLEAR     75  75 100 CALM      29.96S
SHELBYVILLE    CLEAR     75  75 100 CALM      29.99S
$$

TNZ017-018-042-046-047-281000-
NORTHEAST TENNESSEE

CITY           SKY/WX    TMP DP  RH WIND       PRES   REMARKS
TRI CITIES     CLOUDY    72  71  97 CALM      30.04S FOG
ELIZABETHTON   CLOUDY    70  68  94 CALM      30.05R
$$

TNZ012-013-036-069-073-074-281000-
CENTRAL EAST TENNESSEE

CITY           SKY/WX    TMP DP  RH WIND       PRES   REMARKS
KNOXVILLE      MOCLDY    75  72  90 N5        29.98S
OAK RIDGE      MOCLDY    75  71  87 CALM      30.01S
GATLINBURG     MOSUNNY   73  72  94 CALM      29.99S
MORRISTOWN     MOSUNNY   73  73 100 W3        30.03R
$$

TNZ083-085-099-281000-
SOUTHEAST TENNESSEE

CITY           SKY/WX    TMP DP  RH WIND       PRES   REMARKS
CHATTANOOGA    PTCLDY    78  74  87 CALM      29.98R
$$

SKY/WX REPORTED AS FAIR MEANS FEW OR NO CLOUDS BELOW
12 THOUSAND FEET.




USA.gov is the U.S. government's official web portal to all federal, state and local government web resources and services.